Location: Table Mountain
(47.2500°N, 120.5778°W)
Time: 10:59:49
(UTC-08:00)

OTV 5 (USA 277) - Pass Details

Date: 11 October 2017
Orbit: 404 x 417 km, 43.0° (Epoch: 07 September)

Event Time Altitude Azimuth Distance (km) Brightness Sun altitude
Rises 18:58:50 0° 214° (SSW) 2,340 ? -7.1°
Reaches altitude 10° 19:01:35 10° 189° (S) 1,481 ? -7.6°
Maximum altitude 19:03:34 15° 153° (SSE) 1,221 ? -7.9°
Drops below altitude 10° 19:05:33 10° 117° (ESE) 1,484 ? -8.3°
Enters shadow 19:05:49 - 113° (ESE) 1,549 ? -8.3°
